Location: Christianberg
(48.9086°N, 14.0209°E)
Time: 21:15:38
(UTC+00:00)

Cosmos 1825 - Pass Details

Date: 20 June 2021
Orbit: 501 x 506 km, 82.5° (Epoch: 04 August)

Event Time Altitude Azimuth Distance (km) Brightness Sun altitude
Exits shadow 00:12:59 35° 194° (SSW) 840 2.7 -16.1°
Maximum altitude 00:14:30 84° 279° (W) 516 2.1 -16.0°
Drops below altitude 10° 00:18:18 10° 8° (N) 1,730 6.2 -15.8°
Sets 00:20:26 0° 10° (N) 2,619 7.6 -15.7°
